Regional Weather Roundup
Issued by NWS

Home | Current Version | Previous Version | Text Only | Print | Product List | Glossary Off
Versions: 1 2 3 4 5 6 7 8 9 10 11 12 13 14 15 16 17 18 19 20 21 22 23 24 25 26 27 28 29 30 31 32 33 34 35 36 37 38 39 40 41 42 43 44 45 46 47 48 49 50

000
ASUS43 KIND 201409
RWRIN

WEATHER ROUNDUP FOR INDIANA
NATIONAL WEATHER SERVICE INDIANAPOLIS IN
1000 AM EDT WED AUG 20 2014

NOTE: "FAIR" INDICATES FEW OR NO CLOUDS BELOW 12,000 FEET WITH NO
SIGNIFICANT WEATHER AND/OR OBSTRUCTIONS TO VISIBILITY.

* - STATION DOES NOT REPORT WEATHER SUCH AS PRECIPITATION OR FOG.

+ - STATION NOT QUALITY CONTROLLED BY THE NATIONAL WEATHER SERVICE.
    USE DATA WITH CAUTION...ESPECIALLY DEWPOINT AND RELATIVE
    HUMIDITY OBSERVATIONS.

INZ001>003-010>013-019-020-201500-
NORTHWEST INDIANA

CITY           SKY/WX    TMP DP  RH WIND       PRES   REMARKS
GARY /AIRPORT/ SUNNY     77  66  69 SW3       29.88R
KNOX *+        SUNNY     72  66  82 W5        29.88R
LA PORTE +     SUNNY     72  67  84 W5        29.89R
MICHIGAN CITY+ SUNNY     73  68  83 W5        29.89R
MONTICELLO +   SUNNY     72  68  89 W3        29.89R
RENSSELAER +   SUNNY     73  70  88 CALM      29.89S
VALPARAISO     SUNNY     74  66  76 W6        29.90R

$$

LMZ046-743>745-201500-
SOUTHERN LAKE MICHIGAN

STATION/POSITION TIME  TEMP WIND        PRES
                       AIR  DIR/SP/G
                 (UTC) (F)  (DEG/KT/KT) (MB)
BURNS HARBOR     1400   72  260/  5/  6   N/A
MICHIGAN CITY    1400   71  220/  9/ 11   N/A

$$

INZ004-005-014>016-021>024-201500-
NORTH CENTRAL INDIANA

CITY           SKY/WX    TMP DP  RH WIND       PRES   REMARKS
ELKHART        SUNNY     73  66  78 W3        29.88R
GOSHEN         SUNNY     74  67  78 SW5       29.88R
LOGANSPORT +   SUNNY     72  68  88 W5        29.90S
PERU/GRISSOM   SUNNY     73  73 100 W6        29.90R
ROCHESTER +    SUNNY     75  68  78 W6        29.90R
SOUTH BEND     NOT AVBL
WARSAW +       SUNNY     72  66  83 CALM      29.89R

$$

INZ006>009-017-018-025>027-201500-
NORTHEAST INDIANA

CITY           SKY/WX    TMP DP  RH WIND       PRES   REMARKS
ANGOLA *+      SUNNY     75  66  73 NW3       29.88R
AUBURN +       SUNNY     72  64  78 W5        29.89R
FORT WAYNE     SUNNY     74  68  81 W5        29.90R
HUNTINGTON +   SUNNY     73  67  83 W3        29.89R

$$

INZ028-029-035-036-043>045-051>053-201500-
WEST CENTRAL INDIANA

CITY           SKY/WX    TMP DP  RH WIND       PRES   REMARKS
GREENCASTLE +  CLOUDY    70  70 100 CALM      29.94R FOG
LAFAYETTE      SUNNY     72  69  90 CALM      29.90S
TERRE HAUTE    MOSUNNY   75  72  90 CALM      29.93S

$$

INZ030>032-037>040-046>048-054>057-064-065-201500-
CENTRAL INDIANA

CITY           SKY/WX    TMP DP  RH WIND       PRES   REMARKS
ANDERSON       SUNNY     72  68  88 CALM      29.93R
CP ATTERBURY + MOSUNNY   73  72  94 W3        29.94R
COLUMBUS       CLOUDY    70  70 100 CALM      29.94R FOG
INDIANAPOLIS   MOSUNNY   71  69  93 SW7       29.93R
-EAGLE CREEK   SUNNY     74  68  81 W5        29.93R
KOKOMO *+      SUNNY     73  66  78 W6        29.91R
MARION +       SUNNY     72  67  84 W5        29.92R
MT COMFORT *+  CLOUDY    68 N/A N/A SW6       29.94R VSB 3/4
SHELBYVILLE    CLOUDY    72  32  23 SW6       29.94R FOG
ZIONSVILLE +   SUNNY     75  68  78 W3        29.94R

$$

INZ033-034-041-042-049-050-058-059-201500-
EAST CENTRAL INDIANA

CITY           SKY/WX    TMP DP  RH WIND       PRES   REMARKS
MUNCIE         SUNNY     74  67  78 W5        29.92R

$$

INZ060-061-067>069-081>083-085>088-201500-
SOUTHWEST INDIANA

CITY           SKY/WX    TMP DP  RH WIND       PRES   REMARKS
EVANSVILLE     SUNNY     80  73  79 SW5       29.94R
WASHINGTON +   MOSUNNY   77  74  88 W3        29.93R

$$

INZ062-063-066-070>080-084-089>092-201500-
SOUTH CENTRAL AND SOUTHEAST INDIANA

CITY           SKY/WX    TMP DP  RH WIND       PRES   REMARKS
BEDFORD +      SUNNY     77  70  78 W3        29.94R
BLOOMINGTON    PTSUNNY   75  72  90 W3        29.95R FOG

$$




USA.gov is the U.S. government's official web portal to all federal, state and local government web resources and services.